^^
Saratoga-Weather Station Historical Data
Daily Summary for June 26, 2020 Units:  Metric    English   Both
Daily Weekly Monthly Yearly Custom
  High: Low: Average:
Temperature: 11.6 °C 8.2 °C 9.5 °C
Dew Point: 8.4 °C 4.8 °C 7.1 °C
Humidity: 93% 71% 85%
Wind Speed: 27.4km/h 1.4km/h 12.5km/h
Wind Gust: 38.6km/h - -
Wind- - West
Pressure: 1001.7 hPa 999.3 hPa -
Precipitation: 1.0 mm    
Historical Graphs
 
 
Tabular Data for June 26, 2020
Time Temperature Dew Point Pressure Wind Wind Speed Wind Gust Humidity Rainfall Rate (Hourly) solar
00:03 9.4 °C 7 °C 1001.4 hPa NW 11.1 km/h 11.3 km/h 85% 0.0 mm 0 W/m2
00:08 9.3 °C 7.1 °C 1001.4 hPa WNW 7.9 km/h 20.9 km/h 86% 0.0 mm 0 W/m2
00:13 9.3 °C 7.1 °C 1001.4 hPa West 11.1 km/h 12.9 km/h 86% 0.0 mm 0 W/m2
00:18 9.2 °C 7 °C 1001.4 hPa WNW 9.7 km/h 20.9 km/h 86% 0.2 mm 0 W/m2
00:23 9.2 °C 7.1 °C 1001.4 hPa WNW 14.3 km/h 19.3 km/h 87% 0.2 mm 0 W/m2
00:28 9.2 °C 7.1 °C 1001.4 hPa WSW 4.7 km/h 14.5 km/h 87% 0.2 mm 0 W/m2
00:33 9.2 °C 7.1 °C 1001.4 hPa West 9.7 km/h 16.1 km/h 87% 0.2 mm 0 W/m2
00:38 9.2 °C 7 °C 1001.4 hPa West 13 km/h 20.9 km/h 86% 0.2 mm 0 W/m2
00:43 9.2 °C 7.1 °C 1001.4 hPa WNW 14.3 km/h 22.5 km/h 87% 0.5 mm 0 W/m2
00:48 9.2 °C 7 °C 1001.4 hPa West 9.7 km/h 16.1 km/h 86% 0.5 mm 0 W/m2
00:53 9.2 °C 7 °C 1001.4 hPa West 16.3 km/h 17.7 km/h 86% 0.5 mm 0 W/m2
00:58 9.2 °C 6.6 °C 1001.4 hPa West 20.9 km/h 24.1 km/h 84% 0.5 mm 0 W/m2
01:03 9.3 °C 6.7 °C 1001.4 hPa West 20.9 km/h 24.1 km/h 84% 0.5 mm 0 W/m2
01:08 9.4 °C 6.5 °C 1001.4 hPa West 13 km/h 20.9 km/h 82% 0.5 mm 0 W/m2
01:14 9.4 °C 6.3 °C 1001.4 hPa WNW 7.9 km/h 17.7 km/h 81% 0.5 mm 0 W/m2
01:19 9.4 °C 6.3 °C 1001.4 hPa WSW 7.9 km/h 14.5 km/h 81% 0.2 mm 0 W/m2
01:24 9.4 °C 6.3 °C 1001.4 hPa WNW 6.4 km/h 14.5 km/h 81% 0.2 mm 0 W/m2
01:29 9.4 °C 6.3 °C 1001.4 hPa WSW 6.4 km/h 16.1 km/h 81% 0.2 mm 0 W/m2
01:34 9.4 °C 6.1 °C 1001.4 hPa WNW 6.4 km/h 9.7 km/h 80% 0.2 mm 0 W/m2
01:39 9.4 °C 6.1 °C 1001.4 hPa WNW 6.4 km/h 16.1 km/h 80% 0.2 mm 0 W/m2
01:44 9.4 °C 6.1 °C 1001.4 hPa WSW 7.9 km/h 12.9 km/h 80% 0.0 mm 0 W/m2
01:49 9.4 °C 6.3 °C 1001.4 hPa West 16.3 km/h 16.1 km/h 81% 0.0 mm 0 W/m2
01:54 9.4 °C 6.1 °C 1001.4 hPa West 4.7 km/h 17.7 km/h 80% 0.0 mm 0 W/m2
01:59 9.5 °C 6.2 °C 1001.4 hPa NW 6.4 km/h 19.3 km/h 80% 0.0 mm 0 W/m2
02:04 9.4 °C 6.1 °C 1001.4 hPa West 14.3 km/h 24.1 km/h 80% 0.0 mm 0 W/m2
02:09 9.5 °C 6 °C 1001.0 hPa West 17.7 km/h 19.3 km/h 79% 0.0 mm 0 W/m2
02:14 9.6 °C 6.1 °C 1001.0 hPa WSW 24.1 km/h 24.1 km/h 79% 0.0 mm 0 W/m2
02:19 9.6 °C 6 °C 1001.0 hPa WNW 11.1 km/h 17.7 km/h 78% 0.0 mm 0 W/m2
02:24 9.6 °C 5.8 °C 1001.0 hPa West 11.1 km/h 14.5 km/h 77% 0.0 mm 0 W/m2
02:29 9.6 °C 5.8 °C 1001.0 hPa West 6.4 km/h 16.1 km/h 77% 0.0 mm 0 W/m2
02:34 9.6 °C 5.6 °C 1000.7 hPa WNW 20.9 km/h 25.7 km/h 76% 0.0 mm 0 W/m2
02:39 9.6 °C 5.4 °C 1001.0 hPa NW 13 km/h 22.5 km/h 75% 0.0 mm 0 W/m2
02:44 9.7 °C 5.3 °C 1001.0 hPa WNW 13 km/h 19.3 km/h 74% 0.0 mm 0 W/m2
02:49 9.7 °C 5.3 °C 1001.0 hPa WNW 20.9 km/h 22.5 km/h 74% 0.0 mm 0 W/m2
02:54 9.8 °C 5 °C 1001.0 hPa West 9.7 km/h 19.3 km/h 72% 0.0 mm 0 W/m2
02:59 9.8 °C 5 °C 1001.0 hPa WNW 11.1 km/h 14.5 km/h 72% 0.0 mm 0 W/m2
03:04 9.8 °C 5 °C 1001.0 hPa WNW 20.9 km/h 20.9 km/h 72% 0.0 mm 0 W/m2
03:09 9.8 °C 5 °C 1000.7 hPa WNW 11.1 km/h 27.4 km/h 72% 0.0 mm 0 W/m2
03:14 9.8 °C 5 °C 1000.7 hPa NNW 3.2 km/h 20.9 km/h 72% 0.0 mm 0 W/m2
03:19 9.8 °C 5 °C 1000.7 hPa WNW 6.4 km/h 27.4 km/h 72% 0.0 mm 0 W/m2
03:24 9.8 °C 5 °C 1000.7 hPa WSW 14.3 km/h 20.9 km/h 72% 0.0 mm 0 W/m2
03:29 9.8 °C 4.8 °C 1000.3 hPa WNW 3.2 km/h 19.3 km/h 71% 0.0 mm 0 W/m2
03:34 9.8 °C 5 °C 1000.7 hPa WNW 6.4 km/h 20.9 km/h 72% 0.0 mm 0 W/m2
03:39 9.8 °C 5 °C 1000.7 hPa South 7.9 km/h 17.7 km/h 72% 0.0 mm 0 W/m2
03:44 9.8 °C 5 °C 1000.3 hPa SW 6.4 km/h 14.5 km/h 72% 0.0 mm 0 W/m2
03:49 9.8 °C 5 °C 1000.3 hPa West 11.1 km/h 19.3 km/h 72% 0.0 mm 0 W/m2
03:54 9.7 °C 4.9 °C 1000.3 hPa West 16.3 km/h 20.9 km/h 72% 0.0 mm 0 W/m2
03:59 9.7 °C 5.1 °C 1000.3 hPa West 4.7 km/h 16.1 km/h 73% 0.0 mm 0 W/m2
04:04 9.7 °C 5.1 °C 1000.3 hPa West 9.7 km/h 25.7 km/h 73% 0.0 mm 0 W/m2
04:09 9.7 °C 5.1 °C 1000.3 hPa WNW 6.4 km/h 19.3 km/h 73% 0.0 mm 0 W/m2
04:14 9.6 °C 5 °C 1000.3 hPa North 16.3 km/h 29 km/h 73% 0.0 mm 0 W/m2
04:19 9.6 °C 5.2 °C 1000.3 hPa WSW 6.4 km/h 14.5 km/h 74% 0.0 mm 0 W/m2
04:24 9.6 °C 5.2 °C 1000.3 hPa SW 11.1 km/h 29 km/h 74% 0.0 mm 0 W/m2
04:29 9.5 °C 5.3 °C 1000.0 hPa WNW 11.1 km/h 22.5 km/h 75% 0.0 mm 0 W/m2
04:34 9.4 °C 5.2 °C 1000.0 hPa WSW 17.7 km/h 17.7 km/h 75% 0.0 mm 0 W/m2
04:39 9.4 °C 5.4 °C 1000.0 hPa NW 6.4 km/h 24.1 km/h 76% 0.0 mm 0 W/m2
04:44 9.3 °C 5.5 °C 1000.3 hPa WSW 7.9 km/h 19.3 km/h 77% 0.0 mm 0 W/m2
04:49 9.2 °C 5.6 °C 1000.0 hPa WSW 14.3 km/h 32.2 km/h 78% 0.0 mm 0 W/m2
04:54 9 °C 5.7 °C 1000.0 hPa WNW 7.9 km/h 25.7 km/h 80% 0.0 mm 0 W/m2
04:59 8.8 °C 5.9 °C 1000.0 hPa West 13 km/h 32.2 km/h 82% 0.0 mm 0 W/m2
05:04 8.7 °C 6 °C 1000.0 hPa West 6.4 km/h 27.4 km/h 83% 0.0 mm 0 W/m2
05:09 8.6 °C 5.9 °C 1000.0 hPa WSW 7.9 km/h 19.3 km/h 83% 0.0 mm 0 W/m2
05:14 8.6 °C 6 °C 999.7 hPa West 9.7 km/h 27.4 km/h 84% 0.0 mm 0 W/m2
05:19 8.6 °C 6 °C 999.7 hPa SW 9.7 km/h 20.9 km/h 84% 0.0 mm 0 W/m2
05:24 8.6 °C 6 °C 999.7 hPa WNW 17.7 km/h 22.5 km/h 84% 0.0 mm 0 W/m2
05:30 8.7 °C 6 °C 999.7 hPa WNW 16.3 km/h 19.3 km/h 83% 0.0 mm 0 W/m2
05:35 8.7 °C 6 °C 999.7 hPa WSW 19.5 km/h 27.4 km/h 83% 0.0 mm 0 W/m2
05:40 8.7 °C 6.1 °C 999.7 hPa WSW 22.7 km/h 22.5 km/h 84% 0.0 mm 0 W/m2
05:45 8.8 °C 6.2 °C 999.3 hPa WSW 6.4 km/h 29 km/h 84% 0.0 mm 0 W/m2
05:50 8.8 °C 6.1 °C 999.7 hPa WSW 19.5 km/h 22.5 km/h 83% 0.0 mm 0 W/m2
05:55 8.8 °C 6.1 °C 999.7 hPa NW 11.1 km/h 19.3 km/h 83% 0.0 mm 0 W/m2
06:00 8.8 °C 6.1 °C 999.7 hPa NW 6.4 km/h 19.3 km/h 83% 0.0 mm 0 W/m2
06:05 8.8 °C 6.1 °C 999.7 hPa NW 7.9 km/h 20.9 km/h 83% 0.0 mm 0 W/m2
06:10 8.9 °C 6.2 °C 999.7 hPa WNW 4.7 km/h 24.1 km/h 83% 0.0 mm 0 W/m2
06:15 8.9 °C 6.2 °C 999.3 hPa WNW 14.3 km/h 14.5 km/h 83% 0.0 mm 0 W/m2
06:20 9 °C 6.1 °C 999.3 hPa WNW 14.3 km/h 22.5 km/h 82% 0.0 mm 0 W/m2
06:25 9.1 °C 6.2 °C 999.3 hPa West 16.3 km/h 19.3 km/h 82% 0.0 mm 0 W/m2
06:30 9.1 °C 6.2 °C 999.3 hPa West 9.7 km/h 24.1 km/h 82% 0.0 mm 0 W/m2
06:35 9.1 °C 6.2 °C 999.3 hPa NNW 16.3 km/h 20.9 km/h 82% 0.0 mm 0 W/m2
06:40 9 °C 6.3 °C 999.3 hPa NW 4.7 km/h 19.3 km/h 83% 0.0 mm 0 W/m2
06:45 8.9 °C 6.2 °C 999.3 hPa West 13 km/h 25.7 km/h 83% 0.0 mm 0 W/m2
06:50 8.9 °C 6.3 °C 999.3 hPa SW 9.7 km/h 29 km/h 84% 0.0 mm 0 W/m2
06:55 8.8 °C 6.2 °C 999.7 hPa NW 14.3 km/h 22.5 km/h 84% 0.0 mm 0 W/m2
07:00 8.8 °C 6.4 °C 999.3 hPa WSW 13 km/h 29 km/h 85% 0.2 mm 0 W/m2
07:05 8.8 °C 6.4 °C 999.7 hPa WNW 7.9 km/h 22.5 km/h 85% 0.2 mm 0 W/m2
07:10 8.8 °C 6.2 °C 999.7 hPa WNW 7.9 km/h 27.4 km/h 84% 0.2 mm 0 W/m2
07:15 8.9 °C 6.3 °C 999.3 hPa West 16.3 km/h 24.1 km/h 84% 0.2 mm 0 W/m2
07:20 8.9 °C 6.3 °C 999.7 hPa WNW 4.7 km/h 22.5 km/h 84% 0.2 mm 0 W/m2
07:25 8.9 °C 6.3 °C 999.7 hPa WNW 14.3 km/h 19.3 km/h 84% 0.2 mm 0 W/m2
07:30 8.9 °C 6.3 °C 999.7 hPa West 14.3 km/h 24.1 km/h 84% 0.2 mm 0 W/m2
07:35 9 °C 6.3 °C 999.7 hPa West 17.7 km/h 27.4 km/h 83% 0.2 mm 0 W/m2
07:40 9.1 °C 6.2 °C 999.7 hPa WNW 13 km/h 20.9 km/h 82% 0.2 mm 0 W/m2
07:45 9.2 °C 6.3 °C 999.7 hPa WNW 14.3 km/h 24.1 km/h 82% 0.2 mm 0 W/m2
07:50 9.1 °C 6.2 °C 999.7 hPa West 14.3 km/h 25.7 km/h 82% 0.2 mm 7 W/m2
07:55 9.1 °C 6.4 °C 999.7 hPa West 13 km/h 22.5 km/h 83% 0.2 mm 9 W/m2
08:00 9 °C 6.3 °C 999.7 hPa WSW 19.5 km/h 24.1 km/h 83% 0.0 mm 7 W/m2
08:05 8.9 °C 6.3 °C 999.7 hPa WSW 16.3 km/h 22.5 km/h 84% 0.0 mm 11 W/m2
08:10 8.9 °C 6.3 °C 999.7 hPa West 13 km/h 17.7 km/h 84% 0.0 mm 12 W/m2
08:15 8.9 °C 6.3 °C 999.7 hPa West 13 km/h 20.9 km/h 84% 0.0 mm 12 W/m2
08:20 8.9 °C 6.3 °C 999.7 hPa WSW 14.3 km/h 22.5 km/h 84% 0.0 mm 19 W/m2
08:25 8.8 °C 6.4 °C 999.7 hPa SW 17.7 km/h 29 km/h 85% 0.0 mm 18 W/m2
08:30 8.8 °C 6.4 °C 999.7 hPa WNW 16.3 km/h 30.6 km/h 85% 0.0 mm 19 W/m2
08:35 8.7 °C 6.5 °C 999.7 hPa NW 17.7 km/h 19.3 km/h 86% 0.0 mm 21 W/m2
08:40 8.6 °C 6.6 °C 999.7 hPa West 22.7 km/h 27.4 km/h 87% 0.0 mm 26 W/m2
08:45 8.6 °C 6.6 °C 999.7 hPa WNW 14.3 km/h 25.7 km/h 87% 0.0 mm 28 W/m2
08:50 8.5 °C 6.6 °C 999.7 hPa WSW 16.3 km/h 22.5 km/h 88% 0.0 mm 26 W/m2
08:55 8.4 °C 6.5 °C 999.7 hPa WSW 17.7 km/h 20.9 km/h 88% 0.2 mm 46 W/m2
09:00 8.4 °C 6.7 °C 1000.0 hPa WNW 22.7 km/h 24.1 km/h 89% 0.2 mm 44 W/m2
09:05 8.3 °C 6.6 °C 999.7 hPa West 17.7 km/h 33.8 km/h 89% 0.2 mm 40 W/m2
09:10 8.3 °C 6.6 °C 999.7 hPa West 17.7 km/h 20.9 km/h 89% 0.2 mm 33 W/m2
09:15 8.2 °C 6.7 °C 999.7 hPa NNW 9.7 km/h 27.4 km/h 90% 0.2 mm 23 W/m2
09:20 8.2 °C 6.7 °C 1000.0 hPa WSW 6.4 km/h 22.5 km/h 90% 0.2 mm 33 W/m2
09:25 8.2 °C 6.7 °C 1000.0 hPa WNW 20.9 km/h 27.4 km/h 90% 0.2 mm 51 W/m2
09:30 8.3 °C 6.6 °C 1000.0 hPa WSW 7.9 km/h 24.1 km/h 89% 0.2 mm 46 W/m2
09:35 8.3 °C 6.6 °C 1000.0 hPa West 16.3 km/h 24.1 km/h 89% 0.2 mm 128 W/m2
09:40 8.4 °C 6.7 °C 999.7 hPa WNW 7.9 km/h 30.6 km/h 89% 0.2 mm 144 W/m2
09:45 8.4 °C 6.9 °C 1000.0 hPa WNW 16.3 km/h 32.2 km/h 90% 0.2 mm 134 W/m2
09:50 8.4 °C 6.9 °C 1000.0 hPa West 17.7 km/h 24.1 km/h 90% 0.2 mm 167 W/m2
09:55 8.4 °C 6.9 °C 1000.0 hPa WNW 19.5 km/h 32.2 km/h 90% 0.0 mm 142 W/m2
10:00 8.4 °C 6.9 °C 1000.0 hPa WNW 7.9 km/h 20.9 km/h 90% 0.0 mm 172 W/m2
10:05 8.4 °C 6.9 °C 1000.0 hPa West 9.7 km/h 29 km/h 90% 0.0 mm 155 W/m2
10:10 8.4 °C 6.9 °C 1000.0 hPa West 14.3 km/h 27.4 km/h 90% 0.0 mm 121 W/m2
10:15 8.4 °C 6.9 °C 1000.0 hPa West 11.1 km/h 17.7 km/h 90% 0.0 mm 153 W/m2
10:20 8.4 °C 7 °C 1000.0 hPa West 16.3 km/h 24.1 km/h 91% 0.2 mm 167 W/m2
10:25 8.5 °C 7.1 °C 1000.0 hPa West 9.7 km/h 22.5 km/h 91% 0.2 mm 193 W/m2
10:30 8.6 °C 7.2 °C 1000.0 hPa WSW 11.1 km/h 22.5 km/h 91% 0.2 mm 174 W/m2
10:35 8.6 °C 7.1 °C 1000.0 hPa West 9.7 km/h 32.2 km/h 90% 0.2 mm 98 W/m2
10:40 8.6 °C 7.1 °C 1000.0 hPa West 20.9 km/h 22.5 km/h 90% 0.2 mm 47 W/m2
10:45 8.6 °C 6.9 °C 1000.0 hPa WSW 25.9 km/h 32.2 km/h 89% 0.2 mm 193 W/m2
10:50 8.7 °C 7 °C 1000.0 hPa WSW 24.1 km/h 30.6 km/h 89% 0.2 mm 193 W/m2
10:55 8.8 °C 7.1 °C 1000.0 hPa WSW 14.3 km/h 17.7 km/h 89% 0.2 mm 185 W/m2
11:00 8.8 °C 6.9 °C 1000.0 hPa West 9.7 km/h 30.6 km/h 88% 0.2 mm 153 W/m2
11:05 8.9 °C 7.2 °C 1000.0 hPa WSW 25.9 km/h 25.7 km/h 89% 0.2 mm 174 W/m2
11:10 8.9 °C 7 °C 1000.0 hPa West 24.1 km/h 24.1 km/h 88% 0.2 mm 255 W/m2
11:15 9.1 °C 7.1 °C 1000.3 hPa NW 20.9 km/h 33.8 km/h 87% 0.2 mm 276 W/m2
11:20 9.3 °C 7.4 °C 1000.0 hPa West 13 km/h 20.9 km/h 88% 0.0 mm 258 W/m2
11:25 9.4 °C 7.2 °C 1000.0 hPa West 11.1 km/h 37 km/h 86% 0.0 mm 297 W/m2
11:30 9.5 °C 7.3 °C 1000.0 hPa West 9.7 km/h 25.7 km/h 86% 0.0 mm 325 W/m2
11:35 9.6 °C 7.4 °C 1000.0 hPa WNW 13 km/h 30.6 km/h 86% 0.0 mm 206 W/m2
11:40 9.6 °C 7.4 °C 1000.0 hPa WNW 24.1 km/h 27.4 km/h 86% 0.0 mm 257 W/m2
11:45 9.7 °C 7.5 °C 1000.0 hPa WNW 25.9 km/h 33.8 km/h 86% 0.0 mm 731 W/m2
11:50 10.1 °C 7.9 °C 1000.0 hPa West 24.1 km/h 27.4 km/h 86% 0.0 mm 656 W/m2
11:55 10 °C 7.6 °C 999.7 hPa WNW 19.5 km/h 32.2 km/h 85% 0.0 mm 548 W/m2
12:00 10.1 °C 7.7 °C 999.7 hPa West 16.3 km/h 37 km/h 85% 0.0 mm 309 W/m2
12:05 10.1 °C 7.7 °C 1000.3 hPa West 25.9 km/h 27.4 km/h 85% 0.0 mm 513 W/m2
12:10 10.1 °C 7.7 °C 999.7 hPa NW 17.7 km/h 37 km/h 85% 0.0 mm 513 W/m2
12:15 10.3 °C 7.9 °C 999.7 hPa NW 13 km/h 24.1 km/h 85% 0.0 mm 513 W/m2
12:20 10.4 °C 7.6 °C 999.7 hPa WSW 22.7 km/h 24.1 km/h 83% 0.0 mm 513 W/m2
12:25 10.6 °C 7.7 °C 1000.0 hPa WSW 16.3 km/h 35.4 km/h 82% 0.0 mm 578 W/m2
12:30 10.6 °C 7.7 °C 1000.0 hPa WNW 17.7 km/h 30.6 km/h 82% 0.0 mm 668 W/m2
12:35 10.6 °C 7.7 °C 1000.0 hPa WNW 14.3 km/h 35.4 km/h 82% 0.0 mm 410 W/m2
12:40 10.5 °C 7.6 °C 1000.0 hPa WSW 16.3 km/h 27.4 km/h 82% 0.0 mm 378 W/m2
12:45 10.5 °C 7.6 °C 1000.0 hPa WSW 20.9 km/h 32.2 km/h 82% 0.0 mm 499 W/m2
12:50 10.5 °C 7.6 °C 1000.0 hPa WNW 16.3 km/h 29 km/h 82% 0.0 mm 561 W/m2
12:55 10.6 °C 7.7 °C 1000.3 hPa West 17.7 km/h 24.1 km/h 82% 0.0 mm 236 W/m2
13:00 10.4 °C 7.5 °C 1000.3 hPa WNW 22.7 km/h 33.8 km/h 82% 0.0 mm 237 W/m2
13:05 10.4 °C 7.6 °C 1000.3 hPa West 22.7 km/h 22.5 km/h 83% 0.0 mm 214 W/m2
13:10 10.3 °C 7.5 °C 1000.3 hPa SW 11.1 km/h 17.7 km/h 83% 0.0 mm 188 W/m2
13:15 10.2 °C 7.6 °C 1000.3 hPa WNW 19.5 km/h 25.7 km/h 84% 0.0 mm 369 W/m2
13:20 10.3 °C 7.9 °C 1000.3 hPa West 13 km/h 17.7 km/h 85% 0.0 mm 369 W/m2
13:25 10.4 °C 7.6 °C 1000.3 hPa West 16.3 km/h 27.4 km/h 83% 0.0 mm 193 W/m2
13:30 10.4 °C 7.6 °C 1000.3 hPa NNW 9.7 km/h 20.9 km/h 83% 0.0 mm 227 W/m2
13:35 10.3 °C 7.5 °C 1000.3 hPa SW 24.1 km/h 33.8 km/h 83% 0.0 mm 223 W/m2
13:40 10.3 °C 7.5 °C 1000.3 hPa West 14.3 km/h 24.1 km/h 83% 0.0 mm 181 W/m2
13:45 10.3 °C 7.5 °C 1000.3 hPa WSW 20.9 km/h 33.8 km/h 83% 0.0 mm 160 W/m2
13:50 10.2 °C 7.4 °C 1000.7 hPa WNW 11.1 km/h 22.5 km/h 83% 0.0 mm 137 W/m2
13:55 10.2 °C 7.4 °C 1000.7 hPa WNW 14.3 km/h 32.2 km/h 83% 0.0 mm 84 W/m2
14:00 10.1 °C 7.3 °C 1000.7 hPa WNW 7.9 km/h 27.4 km/h 83% 0.0 mm 102 W/m2
14:05 10 °C 7.2 °C 1000.7 hPa West 11.1 km/h 16.1 km/h 83% 0.0 mm 95 W/m2
14:10 10.1 °C 7.3 °C 1000.7 hPa WSW 14.3 km/h 32.2 km/h 83% 0.0 mm 214 W/m2
14:15 10.3 °C 7.5 °C 1000.7 hPa West 11.1 km/h 19.3 km/h 83% 0.0 mm 248 W/m2
14:20 10.4 °C 7.5 °C 1000.7 hPa West 27.4 km/h 30.6 km/h 82% 0.0 mm 193 W/m2
14:25 10.5 °C 7.6 °C 1000.7 hPa WSW 13 km/h 24.1 km/h 82% 0.0 mm 315 W/m2
14:30 10.7 °C 7.8 °C 1000.3 hPa WNW 4.7 km/h 17.7 km/h 82% 0.0 mm 635 W/m2
14:35 11.1 °C 8 °C 1000.3 hPa WSW 19.5 km/h 24.1 km/h 81% 0.0 mm 652 W/m2
14:40 11.3 °C 7.8 °C 1000.7 hPa West 13 km/h 33.8 km/h 79% 0.0 mm 652 W/m2
14:45 11.3 °C 7.8 °C 1000.7 hPa WNW 22.7 km/h 24.1 km/h 79% 0.0 mm 278 W/m2
14:50 11.2 °C 7.7 °C 1000.7 hPa NW 16.3 km/h 33.8 km/h 79% 0.0 mm 264 W/m2
14:55 11.3 °C 7.8 °C 1000.7 hPa West 24.1 km/h 27.4 km/h 79% 0.0 mm 504 W/m2
15:00 11.4 °C 7.7 °C 1000.7 hPa WSW 14.3 km/h 32.2 km/h 78% 0.0 mm 622 W/m2
15:05 11.4 °C 7.5 °C 1000.7 hPa West 24.1 km/h 30.6 km/h 77% 0.0 mm 656 W/m2
15:10 11.3 °C 7.2 °C 1000.7 hPa NW 13 km/h 38.6 km/h 76% 0.0 mm 236 W/m2
15:15 11.4 °C 7.5 °C 1000.7 hPa WNW 19.5 km/h 24.1 km/h 77% 0.0 mm 647 W/m2
15:20 11.6 °C 7.7 °C 1000.7 hPa NW 3.2 km/h 38.6 km/h 77% 0.0 mm 253 W/m2
15:25 11.2 °C 7.3 °C 1000.7 hPa West 13 km/h 24.1 km/h 77% 0.0 mm 130 W/m2
15:30 11.1 °C 7.6 °C 1000.3 hPa WNW 16.3 km/h 22.5 km/h 79% 0.0 mm 281 W/m2
15:35 11.1 °C 7.6 °C 1000.3 hPa NW 13 km/h 16.1 km/h 79% 0.0 mm 248 W/m2
15:40 11.3 °C 8 °C 1000.3 hPa West 13 km/h 20.9 km/h 80% 0.0 mm 272 W/m2
15:45 11.1 °C 8 °C 1000.3 hPa West 16.3 km/h 22.5 km/h 81% 0.0 mm 167 W/m2
15:50 10.9 °C 7.9 °C 1000.3 hPa West 22.7 km/h 30.6 km/h 82% 0.0 mm 183 W/m2
15:55 10.7 °C 7.9 °C 1000.7 hPa West 14.3 km/h 29 km/h 83% 0.0 mm 192 W/m2
16:00 10.4 °C 8 °C 1000.7 hPa West 16.3 km/h 29 km/h 85% 0.0 mm 72 W/m2
16:05 10.2 °C 8 °C 1000.7 hPa WSW 7.9 km/h 29 km/h 86% 0.0 mm 70 W/m2
16:10 10 °C 7.9 °C 1000.7 hPa WNW 11.1 km/h 22.5 km/h 87% 0.0 mm 104 W/m2
16:15 9.9 °C 8 °C 1000.7 hPa NW 14.3 km/h 22.5 km/h 88% 0.0 mm 171 W/m2
16:20 9.9 °C 8.2 °C 1001.0 hPa WNW 17.7 km/h 17.7 km/h 89% 0.0 mm 251 W/m2
16:25 9.9 °C 8.2 °C 1001.0 hPa NW 7.9 km/h 24.1 km/h 89% 0.0 mm 214 W/m2
16:30 10.1 °C 8.4 °C 1001.0 hPa WSW 14.3 km/h 24.1 km/h 89% 0.0 mm 142 W/m2
16:35 10.1 °C 8.2 °C 1001.0 hPa WNW 14.3 km/h 22.5 km/h 88% 0.0 mm 113 W/m2
16:40 10.1 °C 8 °C 1001.0 hPa West 14.3 km/h 24.1 km/h 87% 0.0 mm 84 W/m2
16:45 10.2 °C 8 °C 1001.0 hPa West 9.7 km/h 19.3 km/h 86% 0.0 mm 81 W/m2
16:50 10.2 °C 8 °C 1001.0 hPa WNW 6.4 km/h 14.5 km/h 86% 0.0 mm 84 W/m2
16:55 10.2 °C 8 °C 1001.0 hPa NNW 7.9 km/h 22.5 km/h 86% 0.0 mm 118 W/m2
17:00 10.1 °C 8 °C 1001.0 hPa WSW 6.4 km/h 30.6 km/h 87% 0.0 mm 84 W/m2
17:05 9.9 °C 8 °C 1001.0 hPa WSW 7.9 km/h 20.9 km/h 88% 0.0 mm 74 W/m2
17:10 9.9 °C 8 °C 1001.4 hPa WNW 6.4 km/h 16.1 km/h 88% 0.0 mm 53 W/m2
17:15 9.9 °C 8 °C 1001.0 hPa WSW 7.9 km/h 16.1 km/h 88% 0.0 mm 77 W/m2
17:20 9.9 °C 8 °C 1001.4 hPa West 9.7 km/h 19.3 km/h 88% 0.0 mm 70 W/m2
17:25 9.9 °C 7.8 °C 1001.0 hPa West 9.7 km/h 16.1 km/h 87% 0.0 mm 76 W/m2
17:30 10 °C 7.9 °C 1001.0 hPa West 9.7 km/h 17.7 km/h 87% 0.0 mm 74 W/m2
17:35 10.1 °C 8 °C 1001.4 hPa WNW 16.3 km/h 16.1 km/h 87% 0.0 mm 54 W/m2
17:40 10.2 °C 8 °C 1001.4 hPa WNW 11.1 km/h 24.1 km/h 86% 0.0 mm 63 W/m2
17:45 10.1 °C 8 °C 1001.4 hPa NW 16.3 km/h 24.1 km/h 87% 0.0 mm 54 W/m2
17:50 10.1 °C 8 °C 1001.4 hPa West 6.4 km/h 19.3 km/h 87% 0.0 mm 37 W/m2
17:55 9.9 °C 8 °C 1001.4 hPa West 9.7 km/h 19.3 km/h 88% 0.0 mm 40 W/m2
18:00 9.8 °C 8.1 °C 1001.0 hPa West 6.4 km/h 12.9 km/h 89% 0.0 mm 40 W/m2
18:05 9.7 °C 8.1 °C 1001.0 hPa West 6.4 km/h 19.3 km/h 90% 0.0 mm 65 W/m2
18:10 9.7 °C 8.1 °C 1001.0 hPa West 9.7 km/h 16.1 km/h 90% 0.0 mm 70 W/m2
18:15 9.7 °C 8.1 °C 1001.0 hPa West 6.4 km/h 16.1 km/h 90% 0.0 mm 63 W/m2
18:21 9.7 °C 8.1 °C 1001.0 hPa WNW 11.1 km/h 20.9 km/h 90% 0.0 mm 65 W/m2
18:26 9.7 °C 8.1 °C 1001.0 hPa WSW 11.1 km/h 20.9 km/h 90% 0.0 mm 54 W/m2
18:31 9.7 °C 8 °C 1001.0 hPa WSW 14.3 km/h 20.9 km/h 89% 0.0 mm 39 W/m2
18:36 9.8 °C 8.1 °C 1001.4 hPa SW 9.7 km/h 22.5 km/h 89% 0.0 mm 35 W/m2
18:41 9.7 °C 8 °C 1001.4 hPa WSW 16.3 km/h 19.3 km/h 89% 0.0 mm 42 W/m2
18:46 9.7 °C 8 °C 1001.4 hPa West 14.3 km/h 19.3 km/h 89% 0.0 mm 26 W/m2
18:51 9.7 °C 8.1 °C 1001.4 hPa WSW 13 km/h 19.3 km/h 90% 0.0 mm 26 W/m2
18:56 9.6 °C 8 °C 1001.4 hPa WNW 13 km/h 12.9 km/h 90% 0.0 mm 25 W/m2
19:01 9.6 °C 8 °C 1001.4 hPa West 16.3 km/h 27.4 km/h 90% 0.0 mm 19 W/m2
19:06 9.6 °C 8 °C 1001.4 hPa WNW 11.1 km/h 22.5 km/h 90% 0.0 mm 14 W/m2
19:11 9.6 °C 8 °C 1001.4 hPa WNW 14.3 km/h 27.4 km/h 90% 0.0 mm 7 W/m2
19:16 9.6 °C 8 °C 1001.4 hPa West 11.1 km/h 14.5 km/h 90% 0.0 mm 7 W/m2
19:21 9.6 °C 8 °C 1001.4 hPa WNW 13 km/h 17.7 km/h 90% 0.0 mm 5 W/m2
19:26 9.6 °C 7.9 °C 1001.4 hPa WNW 9.7 km/h 16.1 km/h 89% 0.0 mm 0 W/m2
19:31 9.6 °C 8 °C 1001.4 hPa SW 7.9 km/h 17.7 km/h 90% 0.0 mm 0 W/m2
19:36 9.6 °C 7.9 °C 1001.4 hPa WNW 4.7 km/h 14.5 km/h 89% 0.0 mm 0 W/m2
19:41 9.6 °C 7.9 °C 1001.4 hPa WNW 7.9 km/h 17.7 km/h 89% 0.0 mm 0 W/m2
19:46 9.6 °C 7.9 °C 1001.7 hPa West 6.4 km/h 12.9 km/h 89% 0.0 mm 0 W/m2
19:51 9.6 °C 7.9 °C 1001.4 hPa West 6.4 km/h 14.5 km/h 89% 0.0 mm 0 W/m2
19:56 9.6 °C 8 °C 1001.7 hPa WNW 16.3 km/h 17.7 km/h 90% 0.0 mm 0 W/m2
20:01 9.6 °C 8 °C 1001.7 hPa West 6.4 km/h 11.3 km/h 90% 0.0 mm 0 W/m2
20:06 9.5 °C 7.9 °C 1001.7 hPa WSW 11.1 km/h 16.1 km/h 90% 0.0 mm 0 W/m2
20:11 9.5 °C 8.1 °C 1001.7 hPa WSW 7.9 km/h 17.7 km/h 91% 0.0 mm 0 W/m2
20:16 9.5 °C 8.1 °C 1001.7 hPa West 9.7 km/h 16.1 km/h 91% 0.0 mm 0 W/m2
20:21 9.4 °C 8 °C 1001.4 hPa West 11.1 km/h 14.5 km/h 91% 0.0 mm 0 W/m2
20:26 9.4 °C 8 °C 1001.4 hPa NW 9.7 km/h 17.7 km/h 91% 0.0 mm 0 W/m2
20:31 9.3 °C 7.9 °C 1001.4 hPa West 6.4 km/h 17.7 km/h 91% 0.0 mm 0 W/m2
20:36 9.3 °C 7.9 °C 1001.4 hPa West 9.7 km/h 19.3 km/h 91% 0.0 mm 0 W/m2
20:41 9.3 °C 7.9 °C 1001.4 hPa NW 7.9 km/h 17.7 km/h 91% 0.0 mm 0 W/m2
20:46 9.3 °C 7.9 °C 1001.4 hPa West 11.1 km/h 17.7 km/h 91% 0.0 mm 0 W/m2
20:51 9.3 °C 7.9 °C 1001.4 hPa WSW 13 km/h 17.7 km/h 91% 0.0 mm 0 W/m2
20:56 9.3 °C 7.9 °C 1001.4 hPa WNW 6.4 km/h 16.1 km/h 91% 0.0 mm 0 W/m2
21:01 9.3 °C 7.9 °C 1001.4 hPa NW 7.9 km/h 14.5 km/h 91% 0.0 mm 0 W/m2
21:06 9.2 °C 7.8 °C 1001.4 hPa WNW 13 km/h 19.3 km/h 91% 0.0 mm 0 W/m2
21:11 9.2 °C 7.8 °C 1001.4 hPa West 14.3 km/h 17.7 km/h 91% 0.0 mm 0 W/m2
21:16 9.2 °C 8 °C 1001.4 hPa WNW 6.4 km/h 12.9 km/h 92% 0.0 mm 0 W/m2
21:22 9.2 °C 8 °C 1001.4 hPa West 6.4 km/h 12.9 km/h 92% 0.0 mm 0 W/m2
21:27 9.2 °C 8 °C 1001.4 hPa WNW 11.1 km/h 16.1 km/h 92% 0.0 mm 0 W/m2
21:32 9.2 °C 8 °C 1001.4 hPa West 9.7 km/h 12.9 km/h 92% 0.0 mm 0 W/m2
21:37 9.1 °C 7.9 °C 1001.4 hPa WNW 7.9 km/h 11.3 km/h 92% 0.0 mm 0 W/m2
21:42 9.1 °C 7.9 °C 1001.4 hPa WSW 14.3 km/h 19.3 km/h 92% 0.0 mm 0 W/m2
21:47 9.1 °C 7.9 °C 1001.4 hPa WSW 6.4 km/h 12.9 km/h 92% 0.0 mm 0 W/m2
21:52 9.1 °C 7.9 °C 1001.4 hPa West 4.7 km/h 14.5 km/h 92% 0.0 mm 0 W/m2
21:57 9 °C 7.8 °C 1001.4 hPa SW 6.4 km/h 17.7 km/h 92% 0.0 mm 0 W/m2
22:02 9.1 °C 7.9 °C 1001.4 hPa West 9.7 km/h 24.1 km/h 92% 0.0 mm 0 W/m2
22:07 9.1 °C 7.9 °C 1001.4 hPa WNW 7.9 km/h 16.1 km/h 92% 0.0 mm 0 W/m2
22:12 9.1 °C 7.9 °C 1001.4 hPa WNW 4.7 km/h 24.1 km/h 92% 0.0 mm 0 W/m2
22:17 9.1 °C 7.9 °C 1001.4 hPa WNW 11.1 km/h 12.9 km/h 92% 0.0 mm 0 W/m2
22:22 9.1 °C 7.9 °C 1001.4 hPa WSW 13 km/h 17.7 km/h 92% 0.0 mm 0 W/m2
22:27 9.1 °C 7.9 °C 1001.0 hPa West 13 km/h 14.5 km/h 92% 0.0 mm 0 W/m2
22:32 9.1 °C 7.9 °C 1001.0 hPa WNW 13 km/h 19.3 km/h 92% 0.0 mm 0 W/m2
22:37 9.1 °C 7.9 °C 1001.4 hPa West 9.7 km/h 19.3 km/h 92% 0.0 mm 0 W/m2
22:42 9.1 °C 7.9 °C 1001.0 hPa WNW 6.4 km/h 16.1 km/h 92% 0.0 mm 0 W/m2
22:47 9.2 °C 8.1 °C 1001.0 hPa WNW 7.9 km/h 16.1 km/h 93% 0.0 mm 0 W/m2
22:52 9.2 °C 8.1 °C 1001.0 hPa SW 6.4 km/h 17.7 km/h 93% 0.0 mm 0 W/m2
22:57 9.2 °C 8 °C 1001.0 hPa West 9.7 km/h 19.3 km/h 92% 0.0 mm 0 W/m2
23:02 9.2 °C 8.1 °C 1001.0 hPa West 9.7 km/h 20.9 km/h 93% 0.0 mm 0 W/m2
23:07 9.2 °C 8.1 °C 1001.0 hPa WSW 7.9 km/h 12.9 km/h 93% 0.0 mm 0 W/m2
23:12 9.2 °C 8.1 °C 1001.0 hPa West 4.7 km/h 11.3 km/h 93% 0.0 mm 0 W/m2
23:17 9.2 °C 8.1 °C 1001.0 hPa WSW 6.4 km/h 16.1 km/h 93% 0.0 mm 0 W/m2
23:22 9.2 °C 8.1 °C 1001.0 hPa WNW 6.4 km/h 19.3 km/h 93% 0.0 mm 0 W/m2
23:27 9.2 °C 8.1 °C 1001.0 hPa WNW 4.7 km/h 16.1 km/h 93% 0.0 mm 0 W/m2
23:32 9.2 °C 8.1 °C 1001.0 hPa West 9.7 km/h 19.3 km/h 93% 0.0 mm 0 W/m2
23:37 9.3 °C 8.2 °C 1001.0 hPa SW 16.3 km/h 16.1 km/h 93% 0.0 mm 0 W/m2
23:42 9.3 °C 8.2 °C 1001.0 hPa SW 6.4 km/h 11.3 km/h 93% 0.0 mm 0 W/m2
23:48 9.3 °C 8.2 °C 1001.0 hPa WSW 6.4 km/h 11.3 km/h 93% 0.0 mm 0 W/m2
23:53 9.3 °C 8.2 °C 1000.7 hPa West 9.7 km/h 12.9 km/h 93% 0.0 mm 0 W/m2
23:58 9.3 °C 8.2 °C 1000.7 hPa WNW 1.4 km/h 12.9 km/h 93% 0.0 mm 0 W/m2
Juneau County Weather
Compliments of Weather Underground - 4 mb